Retour au catalogue

MACSAT 2

M 2

ActifCommunicationsPO
NORAD 20608·PAYLOAD·🇺🇸 United States

Lancé May 9, 1990 depuis Vandenberg Space Force Base

Loading…

Prochains Passages (prochaines 24 heures)

TLE

FraisSource: Space-Track

Époque: Sep 14, 2026, 09:14 UTC

1 20608U 90043B   26257.38531649  .00000538  00000-0  63797-4 0  9995
2 20608  89.7518 242.4410 0079793 208.3914 151.2953 14.80820876951594

Suivez MACSAT 2 en temps réel avec AllMySat

Download on the App Store